{"data":{"norad_id":68567,"intl_designator":"2026-070AB","name":"STARLINK-37261","alt_names":[],"object_type":"PAYLOAD","status":"ACTIVE","operator":null,"country":"US","launch_date":"2026-04-02","launch_site_code":"AFETR","launch_vehicle":null,"mission":null,"orbit_class":"UNKNOWN","rcs_meters":null,"size_class":null,"mass_kg":null,"dimensions":null,"purposes":["comms"],"wikipedia_slug":null,"has_3d_model":false,"image_url":null,"decayed_at":null,"tle_current":{"epoch":"2026-05-25T00:39:42.593184Z","epoch_age_seconds":72750,"freshness":"FRESH","line1":"1 68567U 26070AB  26145.02757631  .00022652  00000+0  67914-3 0  9992","line2":"2 68567  53.1592   7.1805 0001020  99.0526 261.0592 15.34417667  8258","mean_motion":15.34417667,"eccentricity":0.000102,"inclination_deg":53.1592,"raan_deg":7.1805,"arg_perigee_deg":99.0526,"mean_anomaly_deg":261.0592,"bstar":0.00067914,"rev_number":825,"period_min":93.84667753568,"perigee_km":461.95297031525,"apogee_km":463.34849101231,"semimajor_km":6840.7877306638,"source":"CELESTRAK","updated_at":"2026-05-25T13:38:21.965024Z"}}}